Location: Recife
(8.0585°S, 34.8848°W)
Time: 10:21:35
(UTC-03:00)

Hubble Space Telescope - Visible Passes

Search period start: 03 December 2022 00:00
Search period end: 13 December 2022 00:00
Orbit: 530 x 534 km, 28.5° (Epoch: 02 December)

Date Brightness Start Highest point End Pass type
(mag) Time Alt. Az. Time Alt. Az. Time Alt. Az.
03 Dec 3.8 18:12:19 10° SW 18:13:35 11° SSW 18:14:52 10° S visible
11 Dec 3.7 19:55:33 10° SSW 19:56:11 12° SSW 19:56:11 12° SSW visible
12 Dec 3.2 19:42:32 10° SSW 19:44:07 17° S 19:44:07 17° S visible
